Rolla, ND

7:52 PM CST on February 24, 2017 (GMT -0600)
Rolla

Weather History for K06D - September, 2013

Change the Weather History Date:

Wednesday, September 11, 2013

  Actual Average (KRUG) Record (KRUG)
Temperature  
Mean Temperature 60 °F -  
Max Temperature 71 °F 72 °F 92 °F (1948)
Min Temperature 50 °F 46 °F 25 °F (1955)
Degree Days  
Heating Degree Days 4    
Growing Degree Days 10 (Base 50)    
Moisture  
Dew Point 47 °F    
Average Humidity 64    
Maximum Humidity 100    
Minimum Humidity 33    
Precipitation  
Precipitation 0.00 in - - ()
Sea Level Pressure  
Sea Level Pressure 30.11 in    
Wind  
Wind Speed 11 mph (NW)    
Max Wind Speed 26 mph    
Max Gust Speed 34 mph    
Visibility 10 miles    
Events      
Averages and records for this station are not official NWS values.
T = Trace of Precipitation, MM = Missing Value Source: NWS Daily Summary

Daily Weather History Graph

Daily Weather History Graph

Search for Another Location

Airport or City:

Trip Planner

Search our weather history database for the weather conditions in past years. The results will help you decide how hot, cold, wet, or windy it might be!

Date:

Astronomy

Sep. 11, 2013 Rise Set
Actual Time 7:09 AM CDT 7:59 PM CDT
Civil Twilight 6:37 AM CDT 8:31 PM CDT
Nautical Twilight 5:59 AM CDT 9:09 PM CDT
Astronomical Twilight 5:18 AM CDT 9:49 PM CDT
Moon 2:12 PM CDT (9/11) 11:23 PM CDT (9/11)
Length of Visible Light 13h 53m
Length of Day
12h 49m
Waxing Crescent, 39% of the Moon is Illuminated
Sep 11
Waxing Crescent
Sep 12
First Quarter
Sep 19
Full
Sep 26
Last Quarter
Oct 4
New

Hourly Weather History & Observations

Time (CDT) Temp. Dew Point Humidity Pressure Visibility Wind Dir Wind Speed Gust Speed Precip Events Conditions
12:15 AM 57.2 °F 53.6 °F 88% 29.99 in 10.0 mi WNW 9.2 mph - N/A   Scattered Clouds
12:35 AM 57.2 °F 55.4 °F 94% 29.99 in 10.0 mi WNW 9.2 mph - N/A   Partly Cloudy
12:55 AM 55.4 °F 53.6 °F 94% 29.99 in 10.0 mi WNW 8.1 mph - N/A   Partly Cloudy
1:15 AM 55.4 °F 53.6 °F 94% 30.00 in 10.0 mi WNW 9.2 mph - N/A   Partly Cloudy
1:35 AM 55.4 °F 53.6 °F 94% 30.00 in 10.0 mi WNW 9.2 mph - N/A   Partly Cloudy
1:55 AM 57.2 °F 51.8 °F 82% 30.01 in 10.0 mi WNW 10.4 mph - N/A   Clear
2:15 AM 55.4 °F 51.8 °F 88% 30.01 in 10.0 mi WNW 8.1 mph - N/A   Clear
2:35 AM 57.2 °F 50.0 °F 77% 30.01 in 10.0 mi West 6.9 mph - N/A   Clear
2:55 AM 53.6 °F 50.0 °F 88% 30.02 in 10.0 mi West 5.8 mph - N/A   Clear
3:15 AM 53.6 °F 50.0 °F 88% 30.02 in 10.0 mi West 4.6 mph - N/A   Clear
3:35 AM 53.6 °F 51.8 °F 94% 30.01 in 10.0 mi West 4.6 mph - N/A   Clear
3:55 AM 53.6 °F 51.8 °F 94% 30.01 in 10.0 mi Calm Calm - N/A   Clear
4:15 AM 55.4 °F 53.6 °F 94% 30.01 in 10.0 mi SW 5.8 mph - N/A   Clear
4:35 AM 55.4 °F 53.6 °F 94% 30.02 in 10.0 mi Calm Calm - N/A   Clear
4:55 AM 55.4 °F 53.6 °F 94% 30.02 in 10.0 mi Calm Calm - N/A   Clear
5:15 AM 53.6 °F 53.6 °F 100% 30.02 in 10.0 mi South 3.5 mph - N/A   Clear
5:35 AM 55.4 °F 51.8 °F 88% 30.03 in 10.0 mi WSW 6.9 mph - N/A   Clear
5:55 AM 55.4 °F 53.6 °F 94% 30.03 in 10.0 mi West 8.1 mph - N/A   Clear
6:15 AM 57.2 °F 50.0 °F 77% 30.03 in 10.0 mi West 11.5 mph - N/A   Clear
6:35 AM 59.0 °F 50.0 °F 72% 30.04 in 10.0 mi WNW 12.7 mph - N/A   Clear
6:55 AM 59.0 °F 48.2 °F 67% 30.04 in 10.0 mi WNW 10.4 mph - N/A   Clear
7:15 AM 59.0 °F 48.2 °F 67% 30.05 in 10.0 mi WNW 9.2 mph - N/A   Clear
7:35 AM 57.2 °F 48.2 °F 72% 30.05 in 10.0 mi WNW 8.1 mph - N/A   Scattered Clouds
7:55 AM 57.2 °F 48.2 °F 72% 30.06 in 10.0 mi NW 9.2 mph - N/A   Scattered Clouds
8:15 AM 59.0 °F 48.2 °F 67% 30.06 in 10.0 mi NW 11.5 mph 17.3 mph N/A   Clear
8:35 AM 59.0 °F 46.4 °F 63% 30.07 in 10.0 mi NW 15.0 mph - N/A   Clear
8:55 AM 59.0 °F 48.2 °F 67% 30.08 in 10.0 mi NW 15.0 mph - N/A   Clear
9:15 AM 60.8 °F 48.2 °F 63% 30.08 in 10.0 mi NW 12.7 mph 20.7 mph N/A   Clear
9:35 AM 62.6 °F 46.4 °F 55% 30.08 in 10.0 mi NW 17.3 mph 23.0 mph N/A   Clear
9:55 AM 62.6 °F 46.4 °F 55% 30.10 in 10.0 mi NNW 17.3 mph 25.3 mph N/A   Clear
10:15 AM 62.6 °F 46.4 °F 55% 30.10 in 10.0 mi NNW 23.0 mph - N/A   Clear
10:35 AM 62.6 °F 48.2 °F 59% 30.11 in 10.0 mi NW 20.7 mph - N/A   Clear
10:55 AM 64.4 °F 48.2 °F 56% 30.11 in 10.0 mi NW 18.4 mph 25.3 mph N/A   Clear
11:15 AM 66.2 °F 46.4 °F 49% 30.12 in 10.0 mi NNW 20.7 mph 27.6 mph N/A   Clear
11:35 AM 66.2 °F 46.4 °F 49% 30.12 in 10.0 mi NNW 24.2 mph 31.1 mph N/A   Clear
11:55 AM 66.2 °F 44.6 °F 46% 30.13 in 10.0 mi NNW 18.4 mph 32.2 mph N/A   Clear
12:15 PM 66.2 °F 42.8 °F 43% 30.13 in 10.0 mi NNW 23.0 mph 34.5 mph N/A   Clear
12:35 PM 68.0 °F 44.6 °F 43% 30.14 in 10.0 mi NNW 21.9 mph 33.4 mph N/A   Clear
12:55 PM 68.0 °F 42.8 °F 40% 30.14 in 10.0 mi NW 26.5 mph 33.4 mph N/A   Clear
1:15 PM 68.0 °F 42.8 °F 40% 30.14 in 10.0 mi NNW 16.1 mph 32.2 mph N/A   Clear
1:35 PM 68.0 °F 42.8 °F 40% 30.15 in 10.0 mi NNW 25.3 mph 31.1 mph N/A   Clear
1:55 PM 68.0 °F 42.8 °F 40% 30.15 in 10.0 mi NNW 20.7 mph 27.6 mph N/A   Clear
2:15 PM 68.0 °F 41.0 °F 37% 30.15 in 10.0 mi NNW 19.6 mph 29.9 mph N/A   Clear
2:35 PM 69.8 °F 41.0 °F 35% 30.15 in 10.0 mi NNW 21.9 mph 32.2 mph N/A   Partly Cloudy
2:55 PM 71.6 °F 41.0 °F 33% 30.15 in 10.0 mi NNW 18.4 mph 29.9 mph N/A   Partly Cloudy
3:15 PM 71.6 °F 41.0 °F 33% 30.16 in 10.0 mi NW 19.6 mph 25.3 mph N/A   Partly Cloudy
3:35 PM 71.6 °F 42.8 °F 35% 30.16 in 10.0 mi NNW 17.3 mph 24.2 mph N/A   Scattered Clouds
3:55 PM 71.6 °F 42.8 °F 35% 30.16 in 10.0 mi NW 20.7 mph 25.3 mph N/A   Mostly Cloudy
4:15 PM 71.6 °F 41.0 °F 33% 30.16 in 10.0 mi NNW 17.3 mph 26.5 mph N/A   Scattered Clouds
4:35 PM 69.8 °F 42.8 °F 38% 30.16 in 10.0 mi NW 13.8 mph - N/A   Scattered Clouds
4:55 PM 69.8 °F 41.0 °F 35% 30.16 in 10.0 mi NNW 16.1 mph - N/A   Scattered Clouds
5:15 PM 71.6 °F 41.0 °F 33% 30.17 in 10.0 mi NNW 17.3 mph - N/A   Mostly Cloudy
5:35 PM 69.8 °F 42.8 °F 38% 30.17 in 10.0 mi NNW 15.0 mph - N/A   Mostly Cloudy
5:55 PM 68.0 °F 42.8 °F 40% 30.17 in 10.0 mi NNW 13.8 mph 18.4 mph N/A   Mostly Cloudy
6:15 PM 69.8 °F 44.6 °F 40% 30.17 in 10.0 mi NNW 13.8 mph - N/A   Scattered Clouds
6:35 PM 68.0 °F 42.8 °F 40% 30.18 in 10.0 mi NNW 12.7 mph - N/A   Mostly Cloudy
6:55 PM 68.0 °F 44.6 °F 43% 30.18 in 10.0 mi NNW 11.5 mph - N/A   Partly Cloudy
7:15 PM 66.2 °F 44.6 °F 46% 30.18 in 10.0 mi NNW 9.2 mph - N/A   Clear
7:35 PM 64.4 °F 46.4 °F 52% 30.19 in 10.0 mi NNW 9.2 mph - N/A   Partly Cloudy
7:55 PM 62.6 °F 48.2 °F 59% 30.19 in 10.0 mi NW 8.1 mph - N/A   Scattered Clouds
8:15 PM 59.0 °F 48.2 °F 67% 30.19 in 10.0 mi NW 5.8 mph - N/A   Partly Cloudy
8:35 PM 57.2 °F 48.2 °F 72% 30.20 in 10.0 mi NW 8.1 mph - N/A   Clear
8:55 PM 57.2 °F 46.4 °F 67% 30.21 in 10.0 mi NW 10.4 mph - N/A   Clear
9:15 PM 55.4 °F 46.4 °F 72% 30.22 in 10.0 mi NW 9.2 mph - N/A   Clear
9:35 PM 55.4 °F 44.6 °F 67% 30.22 in 10.0 mi NW 10.4 mph - N/A   Partly Cloudy
9:55 PM 57.2 °F 44.6 °F 63% 30.23 in 10.0 mi NW 10.4 mph - N/A   Partly Cloudy
10:15 PM 55.4 °F 44.6 °F 67% 30.23 in 10.0 mi NNW 10.4 mph - N/A   Partly Cloudy
10:35 PM 53.6 °F 44.6 °F 72% 30.23 in 10.0 mi NNW 9.2 mph - N/A   Partly Cloudy
10:55 PM 53.6 °F 46.4 °F 77% 30.23 in 10.0 mi NW 9.2 mph - N/A   Partly Cloudy
11:15 PM 53.6 °F 46.4 °F 77% 30.24 in 10.0 mi NW 9.2 mph - N/A   Partly Cloudy
11:35 PM 50.0 °F 46.4 °F 87% 30.25 in 10.0 mi NNW 9.2 mph - N/A   Partly Cloudy
11:55 PM 50.0 °F 46.4 °F 87% 30.25 in 10.0 mi NNW 8.1 mph - N/A   Partly Cloudy